Preview of NWS' New Version of Forecast
This preview is not operational and should not be used for support decisions.

Regional Weather Roundup (RWR)

Issued by National Weather Service (NWS)

                            
000
ASUS44 KMEG 190410
RWRTN 
TENNESSEE HOURLY STATE WEATHER ROUNDUP
NATIONAL WEATHER SERVICE MEMPHIS TN
1100 PM CDT THU APR 18 2019

TNZ002-004-019-021-049-052-054-088>092-190500-
WEST TENNESSEE
  
CITY           SKY/WX    TMP DP  RH WIND       PRES   REMARKS
MEMPHIS INTL   LGT RAIN  50  49  96 N23G32    29.64R FOG              
NWS MEMPHIS      N/A     50 N/A N/A MISG        N/A                   
JACKSON        CLOUDY    59  58  96 W3        29.58F                  
DYERSBURG      LGT RAIN  50  49  96 N14G28    29.64R                  
SOMERVILLE     CLOUDY    55  54  94 NW14G24   29.58R FOG              
COVINGTON      CLOUDY    50  48  93 N23G32    29.63R FOG              
UNION CITY     CLOUDY    50  50 100 N17G25    29.62S FOG              
BOLIVAR        CLOUDY    59  57  94 CALM      29.56F                  
PARIS          CLOUDY    57  55  94 N17       29.57R FOG              
HUNTINGDON     CLOUDY    59  59 100 CALM      29.56S                  
LEXINGTON      CLOUDY    59  57  94 S3        29.54S                  
SELMER         CLOUDY    57  57 100 W5        29.57R                  
SAVANNAH       CLOUDY    59  57  94 S7        29.56R                  
$$

TNZ008-025-027-028-033-062-065-066-190500-
NORTH MIDDLE TENNESSEE
  
CITY           SKY/WX    TMP DP  RH WIND       PRES   REMARKS
NASHVILLE      LGT RAIN  60  56  86 NE5       29.58F                  
DICKSON        CLOUDY    57  57 100 VRB5      29.54F                  
PORTLAND       CLOUDY    59  59 100 CALM      29.60F                  
CLARKSVILLE    LGT RAIN  60  57  89 E5        29.57F FOG              
LEBANON        CLOUDY    61  59  94 W6        29.62F FOG              
SMYRNA         LGT RAIN  60  59  96 SE3       29.61F                  
MURFREESBORO   CLOUDY    59  59 100 E8        29.55F FOG              
COOKEVILLE     CLOUDY    61  61 100 S3        29.64F FOG              
LIVINGSTON     CLOUDY    61  59  94 SW7G13    29.65F FOG              
GALLATIN       CLOUDY    61  59  94 NW3       29.62F FOG              
CROSSVILLE     RAIN      60  58  92 SE6       29.69F FOG              
ROCKWOOD       CLOUDY    64  57  77 S9G15     29.67F HAZE             
$$

TNZ061-075-076-078-094-096-097-190500-
SOUTH MIDDLE TENNESSEE
  
CITY           SKY/WX    TMP DP  RH WIND       PRES   REMARKS
LAWRENCEBURG   CLOUDY    57  55  94 E9G16     29.57F                  
LEWISBURG      MOCLDY    57  57 100 E5        29.60F                  
FAYETTEVILLE   CLOUDY    57  57 100 CALM      29.65F                  
TULLAHOMA      CLOUDY    57  55  94 E5        29.61F                  
WINCHESTER     CLOUDY    64  61  88 S7        29.63F                  
MCMINNVILLE    CLOUDY    61  61 100 CALM      29.62F FOG              
COLUMBIA       CLOUDY    57  57 100 E8G14     29.56F                  
SHELBYVILLE    MOCLDY    57  57 100 CALM      29.62F                  
$$

TNZ017-018-042-046-047-190500-
NORTHEAST TENNESSEE
  
CITY           SKY/WX    TMP DP  RH WIND       PRES   REMARKS
TRI CITIES     MOCLDY    69  52  54 SE8       29.75F                  
ELIZABETHTON   FAIR      72  52  49 S8        29.78F                  
GREENEVILLE    CLEAR     70  52  52 S10       29.72F                  
$$

TNZ012-013-036-069-073-074-190500-
CENTRAL EAST TENNESSEE
  
CITY           SKY/WX    TMP DP  RH WIND       PRES   REMARKS
KNOXVILLE      CLOUDY    73  51  46 S15G22    29.66F                  
OAK RIDGE      CLOUDY    73  52  47 S6        29.67F                  
DOWNTOWN KNOXV MOCLDY    66  55  68 CALM      29.67F                  
GATLINBURG     MOCLDY    75  50  41 S9G16     29.68F                  
MORRISTOWN     MOCLDY    70  52  52 CALM      29.69F                  
JACKSBORO      CLOUDY    72  54  53 VRB5      29.69F                  
$$

TNZ083-085-099-190500-
SOUTHEAST TENNESSEE
  
CITY           SKY/WX    TMP DP  RH WIND       PRES   REMARKS
CHATTANOOGA    RAIN      66  62  87 S7        29.69R FOG              
DAYTON         CLOUDY    68  61  77 S9G16     29.65S HAZE             
$$

SKY/WX REPORTED AS FAIR MEANS FEW OR NO CLOUDS BELOW
12 THOUSAND FEET.